Date String (YYYY-MM-DD hh:mm:ss) UTC,Instrument flags,absolute air pressure of the measurement (hPa),sample flow rate (lpm),inlet stack bypass flow (lpm),air temperature of the measurement (°C),ambient temperature measured by the external sensor (°C),aerosol sample conditioner tube jacket temperature (°C),OPC LED temperature (°C),internal box temperature (°C),relative humidity of the measurement (%),span deviation,mass concentration of particles derived from Lorenz-Mie calculation of OPC scattering (μg/m³),mass concentration of particles derived from Lorenz-Mie calculation of OPC scattering (μg/m³),mass concentration of particles derived from Lorenz-Mie calculation of OPC scattering (μg/m³)
DateTimeUTC,F1_M11,P_M11,Q1_M11,Q2_M11,T1_M11,T2_M11,T3_M11,T4_M11,T5_M11,U1_M11,ZSPAN_M11,X2_M11,X0_M11,X1_M11
2024-06-14 15:00:00,SystemResetWarning,0832.5,5.00,000.00,029.8,028.8,000.0,038.2,031.5,037.7,0001.0,0011.89,0046.06,0008.71
2024-06-14 15:01:00,SystemResetWarning,0832.5,5.00,000.00,029.8,028.9,000.0,038.2,031.6,037.4,0000.9,0011.96,0044.90,0008.75
2024-06-14 15:02:00,SystemResetWarning,0832.6,5.01,000.00,029.9,029.1,000.0,038.2,031.7,037.4,0000.7,0012.00,0043.30,0008.79
2024-06-14 15:03:00,SystemResetWarning,0832.6,5.00,000.00,029.9,029.2,000.0,038.2,031.7,037.1,0000.7,0012.01,0043.82,0008.78
2024-06-14 15:04:00,SystemResetWarning,0832.5,4.99,000.00,030.0,029.4,000.0,038.3,031.8,037.2,0000.4,0012.07,0044.63,0008.80
2024-06-14 15:05:00,SystemResetWarning,0832.6,4.99,000.00,030.0,029.5,000.0,038.3,031.9,037.1,0000.4,0012.13,0044.42,0008.79
2024-06-14 15:06:00,SystemResetWarning,0832.5,4.99,000.00,030.1,029.6,000.0,038.3,031.9,037.0,0000.1,0012.18,0043.65,0008.78
2024-06-14 15:07:00,SystemResetWarning,0832.5,5.01,000.00,030.2,029.6,000.0,038.3,032.0,036.6,-000.4,0012.16,0041.31,0008.76
2024-06-14 15:08:00,SystemResetWarning,0832.5,5.01,000.00,030.2,029.7,000.0,038.4,032.0,036.6,0000.1,0012.19,0038.65,0008.77
2024-06-14 15:09:00,SystemResetWarning,0832.5,5.00,000.00,030.3,029.8,000.0,038.4,032.1,036.5,0000.3,0012.13,0038.30,0008.77
2024-06-14 15:10:00,SystemResetWarning,0832.5,5.00,000.00,030.3,029.9,000.0,038.4,032.1,036.7,0000.6,0012.12,0039.21,0008.75
2024-06-14 15:11:00,SystemResetWarning,0832.5,5.00,000.00,030.4,029.9,000.0,038.5,032.2,036.6,0000.6,0012.11,0037.45,0008.72
2024-06-14 15:12:00,SystemResetWarning,0832.5,4.99,000.00,030.3,029.0,000.0,038.6,031.7,036.7,0000.5,0012.04,0036.55,0008.69
2024-06-14 15:13:00,SystemResetWarning,0832.4,5.01,000.00,030.0,027.0,000.0,038.6,030.8,037.3,0000.4,0012.03,0036.90,0008.65
2024-06-14 15:14:00,SystemResetWarning,0832.4,5.02,000.00,029.7,026.4,000.0,038.6,030.4,038.0,0000.6,0012.00,0036.89,0008.62
2024-06-14 15:15:00,SystemResetWarning,0832.4,4.99,000.00,029.5,026.7,000.0,038.5,030.5,038.2,0000.9,0011.96,0036.10,0008.58
2024-06-14 15:16:00,SystemResetWarning,0832.4,4.99,000.00,029.5,027.1,000.0,038.3,030.7,038.2,0000.9,0011.91,0035.27,0008.55
2024-06-14 15:17:00,SystemResetWarning,0832.4,5.01,000.00,029.5,027.5,000.0,038.2,030.9,038.4,0000.8,0011.85,0035.47,0008.53
2024-06-14 15:18:00,SystemResetWarning,0832.4,5.00,000.00,029.5,027.9,000.0,038.2,031.1,038.2,0000.9,0011.84,0037.69,0008.51
2024-06-14 15:19:00,SystemResetWarning,0832.4,5.00,000.00,029.6,028.2,000.0,038.1,031.3,038.2,0001.0,0011.83,0039.58,0008.50
2024-06-14 15:20:00,SystemResetWarning,0832.3,4.99,000.00,029.6,028.5,000.0,038.1,031.4,037.9,0000.9,0011.74,0038.72,0008.46
2024-06-14 15:21:00,SystemResetWarning,0832.3,5.01,000.00,029.7,028.7,000.0,038.1,031.5,038.0,0001.0,0011.76,0037.34,0008.45
2024-06-14 15:22:00,SystemResetWarning,0832.3,5.00,000.00,029.7,028.9,000.0,038.1,031.5,037.8,0000.7,0011.75,0037.72,0008.46
2024-06-14 15:23:00,SystemResetWarning,0832.3,5.00,000.00,029.8,029.1,000.0,038.1,031.6,037.5,0000.6,0011.80,0038.23,0008.48
2024-06-14 15:24:00,SystemResetWarning,0832.3,5.00,000.00,029.9,029.2,000.0,038.2,031.7,037.4,0000.9,0011.81,0037.77,0008.49
2024-06-14 15:25:00,SystemResetWarning,0832.4,5.00,000.00,029.9,029.3,000.0,038.2,031.8,037.2,0001.4,0011.77,0037.37,0008.50
2024-06-14 15:26:00,SystemResetWarning,0832.5,5.00,000.00,030.0,029.5,000.0,038.2,031.9,037.2,0001.6,0011.74,0039.64,0008.52
2024-06-14 15:27:00,SystemResetWarning,0832.5,4.99,000.00,030.1,029.5,000.0,038.2,031.9,037.2,0001.6,0011.78,0039.81,0008.52
2024-06-14 15:28:00,SystemResetWarning,0832.5,4.99,000.00,030.1,029.6,000.0,038.3,032.0,037.2,0001.7,0011.84,0040.34,0008.54
2024-06-14 15:29:00,SystemResetWarning,0832.5,5.01,000.00,030.2,029.7,000.0,038.3,032.0,036.8,0002.1,0011.88,0040.08,0008.54
2024-06-14 15:30:00,SystemResetWarning,0832.5,5.01,000.00,030.2,029.7,000.0,038.3,032.0,036.7,0001.9,0011.84,0038.83,0008.55
2024-06-14 15:31:00,SystemResetWarning,0832.4,4.98,000.00,030.1,028.0,000.0,038.4,031.3,037.1,0001.9,0011.93,0038.54,0008.57
2024-06-14 15:32:00,SystemResetWarning,0832.3,5.01,000.00,029.7,026.2,000.0,038.4,030.4,037.6,0002.0,0011.97,0038.72,0008.58
2024-06-14 15:33:00,SystemResetWarning,0832.3,5.02,000.00,029.4,026.0,000.0,038.4,030.2,038.5,0001.8,0012.07,0039.43,0008.59
2024-06-14 15:34:00,SystemResetWarning,0832.3,4.99,000.00,029.3,026.4,000.0,038.2,030.3,039.3,0002.2,0012.10,0039.30,0008.60
2024-06-14 15:35:00,SystemResetWarning,0832.3,5.00,000.00,029.3,026.9,000.0,038.1,030.6,039.4,0002.3,0012.08,0039.48,0008.62
2024-06-14 15:36:00,SystemResetWarning,0832.4,5.01,000.00,029.3,027.4,000.0,038.0,030.8,039.6,0002.0,0012.16,0041.48,0008.64
2024-06-14 15:37:00,SystemResetWarning,0832.3,5.00,000.00,029.3,027.8,000.0,037.9,030.9,038.7,0001.9,0012.17,0039.71,0008.65
2024-06-14 15:38:00,SystemResetWarning,0832.3,5.00,000.00,029.4,028.1,000.0,037.9,031.1,038.5,0001.8,0012.14,0039.38,0008.70
2024-06-14 15:39:00,SystemResetWarning,0832.3,5.01,000.00,029.4,028.4,000.0,037.9,031.2,038.6,0001.4,0012.15,0038.95,0008.75
2024-06-14 15:40:00,SystemResetWarning,0832.3,5.00,000.00,029.5,028.6,000.0,037.9,031.3,038.4,0000.8,0012.17,0037.79,0008.83
2024-06-14 15:41:00,SystemResetWarning,0832.3,5.00,000.00,029.6,028.8,000.0,037.9,031.4,037.9,0000.6,0012.17,0037.80,0008.86
2024-06-14 15:42:00,SystemResetWarning,0832.3,5.00,000.00,029.6,028.9,000.0,037.9,031.5,037.7,0000.5,0012.24,0039.89,0008.92
2024-06-14 15:43:00,SystemResetWarning,0832.4,4.99,000.00,029.7,029.1,000.0,037.9,031.6,037.6,0000.5,0012.31,0040.80,0009.00
2024-06-14 15:44:00,SystemResetWarning,0832.3,4.99,000.00,029.8,029.2,000.0,038.0,031.6,037.4,0000.5,0012.30,0041.18,0009.06
2024-06-14 15:45:00,SystemResetWarning,0832.3,5.01,000.00,029.8,029.3,000.0,038.0,031.7,037.1,0000.5,0012.35,0040.27,0009.14
2024-06-14 15:46:00,SystemResetWarning,0832.3,5.01,000.00,029.9,029.4,000.0,038.0,031.8,036.9,0000.2,0012.52,0041.19,0009.21
2024-06-14 15:47:00,SystemResetWarning,0832.3,5.00,000.00,029.9,029.5,000.0,038.1,031.8,036.9,0000.1,0012.57,0040.42,0009.25
2024-06-14 15:48:00,SystemResetWarning,0832.3,5.00,000.00,030.0,029.6,000.0,038.1,031.9,037.0,0000.2,0012.65,0040.82,0009.30
2024-06-14 15:49:00,SystemResetWarning,0832.3,5.00,000.00,030.1,029.6,000.0,038.1,031.9,036.7,0000.1,0012.76,0042.87,0009.32
2024-06-14 15:50:00,SystemResetWarning,0832.3,4.99,000.00,030.0,028.3,000.0,038.2,031.3,036.8,0000.4,0012.84,0043.24,0009.32
2024-06-14 15:51:00,SystemResetWarning,0832.2,5.01,000.00,029.7,027.0,000.0,038.3,030.7,038.0,0000.8,0012.94,0043.51,0009.32
2024-06-14 15:52:00,SystemResetWarning,0832.2,5.01,000.00,029.5,027.0,000.0,038.2,030.6,038.5,0000.8,0013.04,0044.80,0009.34
2024-06-14 15:53:00,SystemResetWarning,0832.2,5.00,000.00,029.5,027.3,000.0,038.1,030.7,038.4,0000.5,0012.93,0043.23,0009.32
2024-06-14 15:54:00,SystemResetWarning,0832.2,5.01,000.00,029.5,027.7,000.0,038.0,031.0,038.4,-000.1,0012.94,0041.60,0009.31
2024-06-14 15:55:00,SystemResetWarning,0832.2,5.00,000.00,029.5,028.0,000.0,038.0,031.1,038.1,-000.1,0012.94,0041.27,0009.29
2024-06-14 15:56:00,SystemResetWarning,0832.2,5.00,000.00,029.6,028.3,000.0,038.0,031.3,038.0,-000.1,0012.90,0041.59,0009.28
2024-06-14 15:57:00,SystemResetWarning,0832.3,5.00,000.00,029.6,028.6,000.0,038.0,031.4,037.9,-000.3,0012.82,0041.37,0009.28
2024-06-14 15:58:00,SystemResetWarning,0832.2,5.00,000.00,029.7,028.8,000.0,038.0,031.5,038.0,-000.5,0012.72,0041.29,0009.28
2024-06-14 15:59:00,SystemResetWarning,0832.2,4.99,000.00,029.7,029.0,000.0,038.0,031.6,038.0,-001.3,0012.70,0042.07,0009.30
